Albuquerque, NM

1:50 AM MST on January 22, 2018 (GMT -0700)
Albuquerque International Sunport

Weather History for KABQ - August, 2012

Change the Weather History Date:

Friday, August 24, 2012

  Actual Average Record
Temperature  
Mean Temperature 73 °F 76 °F  
Max Temperature 83 °F 87 °F 96 °F (1936)
Min Temperature 63 °F 64 °F 46 °F (1917)
Degree Days  
Heating Degree Days 0 0  
Month to date heating degree days 0 0  
Since 1 June heating degree days 0 4  
Since 1 July heating degree days 0 0  
Cooling Degree Days 8 10  
Month to date cooling degree days 341 277  
Year to date cooling degree days 1449 1088  
Since 1 June cooling degree days 1277 990  
Growing Degree Days 22 (Base 50)    
Moisture  
Dew Point 52 °F    
Average Humidity 53    
Maximum Humidity 73    
Minimum Humidity 33    
Precipitation  
Precipitation 0.00 in 0.05 in 0.71 in (2006)
Month to date precipitation 1.61 1.29  
Year to date precipitation 4.78 5.99  
Snow  
Snow 0.00 in - - ()
Month to date snowfall 0.0  
Since 1 June snowfall 0.0  
Since 1 July snowfall 0.0  
Snow Depth 0.00 in    
Sea Level Pressure  
Sea Level Pressure 29.83 in    
Wind  
Wind Speed 5 mph (SW)    
Max Wind Speed 23 mph    
Max Gust Speed 29 mph    
Visibility 10 miles    
Events      
T = Trace of Precipitation, MM = Missing Value Source: NWS Daily Summary

Daily Weather History Graph

Daily Weather History Graph

Search for Another Location

Airport or City:

Trip Planner

Search our weather history database for the weather conditions in past years. The results will help you decide how hot, cold, wet, or windy it might be!

Date:

Astronomy

Aug. 24, 2012 Rise Set
Actual Time 6:33 AM MDT 7:43 PM MDT
Civil Twilight 6:07 AM MDT 8:09 PM MDT
Nautical Twilight 5:36 AM MDT 8:40 PM MDT
Astronomical Twilight 5:03 AM MDT 9:12 PM MDT
Moon 2:09 PM MDT (8/24) No Moon Set
Length of Visible Light 14h 01m
Length of Day
13h 09m
First Quarter, 52% of the Moon is Illuminated
Aug 24
First Quarter
Aug 31
Full
Sep 8
Last Quarter
Sep 15
New
Sep 22
First Quarter

Hourly Weather History & Observations

Time (MDT) Temp. Dew Point Humidity Pressure Visibility Wind Dir Wind Speed Gust Speed Precip Events Conditions
12:52 AM 66.9 °F 55.0 °F 66% 29.85 in 10.0 mi South 10.4 mph - N/A   Scattered Clouds
1:52 AM 64.9 °F 55.9 °F 73% 29.87 in 10.0 mi SE 5.8 mph - N/A   Scattered Clouds
2:52 AM 64.0 °F 55.0 °F 73% 29.86 in 10.0 mi SSE 3.5 mph - N/A   Scattered Clouds
3:52 AM 64.0 °F 55.0 °F 73% 29.85 in 10.0 mi SW 3.5 mph - N/A   Overcast
4:52 AM 64.9 °F 54.0 °F 68% 29.85 in 10.0 mi Calm Calm - N/A   Mostly Cloudy
5:52 AM 64.0 °F 54.0 °F 70% 29.86 in 10.0 mi SE 5.8 mph - N/A   Overcast
6:52 AM 64.9 °F 54.0 °F 68% 29.87 in 10.0 mi South 3.5 mph - N/A   Mostly Cloudy
7:52 AM 64.9 °F 55.0 °F 70% 29.89 in 10.0 mi South 5.8 mph - N/A   Scattered Clouds
8:52 AM 66.9 °F 53.1 °F 61% 29.91 in 10.0 mi SW 6.9 mph - N/A   Scattered Clouds
9:52 AM 69.1 °F 53.1 °F 57% 29.90 in 10.0 mi Variable 4.6 mph - N/A   Mostly Cloudy
10:52 AM 72.0 °F 53.1 °F 51% 29.88 in 10.0 mi Calm Calm - N/A   Mostly Cloudy
11:52 AM 75.0 °F 52.0 °F 44% 29.86 in 10.0 mi Calm Calm - N/A   Scattered Clouds
12:52 PM 75.9 °F 51.1 °F 42% 29.83 in 10.0 mi Calm Calm - N/A   Mostly Cloudy
1:52 PM 79.0 °F 48.9 °F 35% 29.80 in 10.0 mi WNW 6.9 mph - N/A   Mostly Cloudy
2:52 PM 79.0 °F 48.9 °F 35% 29.78 in 10.0 mi Calm Calm - N/A   Mostly Cloudy
3:52 PM 80.1 °F 48.9 °F 34% 29.77 in 10.0 mi WSW 3.5 mph - N/A   Mostly Cloudy
4:52 PM 81.0 °F 48.0 °F 31% 29.75 in 10.0 mi WNW 8.1 mph - N/A   Mostly Cloudy
5:52 PM 80.1 °F 51.1 °F 36% 29.75 in 10.0 mi WSW 21.9 mph 28.8 mph N/A   Mostly Cloudy
6:52 PM 75.9 °F 51.1 °F 42% 29.76 in 10.0 mi West 9.2 mph - N/A   Mostly Cloudy
7:52 PM 75.9 °F 52.0 °F 43% 29.76 in 10.0 mi WSW 5.8 mph - N/A   Mostly Cloudy
8:52 PM 75.0 °F 52.0 °F 44% 29.79 in 10.0 mi NW 5.8 mph - N/A   Scattered Clouds
9:52 PM 75.0 °F 52.0 °F 44% 29.80 in 10.0 mi NW 4.6 mph - N/A   Scattered Clouds
10:52 PM 70.0 °F 53.1 °F 55% 29.81 in 10.0 mi East 5.8 mph - N/A   Scattered Clouds
11:52 PM 72.0 °F 52.0 °F 49% 29.79 in 10.0 mi Calm Calm - N/A   Scattered Clouds